Home > Weather > Camagüey > Past weeks

Flag for Cuba Weather for the Past 2 Weeks in Camagüey, Cuba

Now
79 °F

Scattered clouds.


Feels Like: 80 °F
Forecast: 65 / 78 °F
Wind: 15 mph from Northeast

Location: Camaguey Aeropuerto

Current Time: Feb 13, 2016 at 1:26:54 PM

Latest Report: Feb 13, 2016 at 12:50 PM


Visibility: 6 mi

Pressure: 30.15 "Hg

Humidity: 54%

Dew point: 61 °F

Location of CamagüeyLocation

Historic Weather in Camagüey — Graph

°F

Camagüey Temperature Yesterday

Maximum temperature yesterday: 75 °F (at 9:51 AM)
Minimum temperature yesterday: 66 °F (at 11:50 PM)
Average temperature yesterday: 70 °F

High & Low Weather Summary for the Past Weeks

 TemperatureHumidityPressure
High90 °F (Feb 1, 3:50 PM)94% (Jan 31, 6:50 AM)30.24 "Hg (Jan 31, 6:50 AM)
Low59 °F (Feb 9, 5:50 AM)31% (Feb 5, 1:50 PM)29.98 "Hg (Feb 1, 2:50 PM)
Average72 °F74%30.09 "Hg
* Reported Jan 29 11:51 AM — Feb 13 11:50 AM, Camagüey, Weather by CustomWeather, © 2016

Note: Actual official high and low records may vary slightly from our data, if they occured in-between our weather recording intervals... More about our weather records

Advertising

Camagüey Weather History for the Previous 24 Hours

 ConditionsComfort  
Time TempWeatherWind HumidityBarometerVisibility
11:50 AM
Sat, Feb 13
77 °FPartly sunny.16 mph61%30.15 "Hg6 mi
10:50 AM77 °FBroken clouds.14 mph61%30.18 "Hg6 mi
9:50 AM75 °FPartly sunny.17 mph69%30.18 "Hg6 mi
8:50 AM73 °FScattered clouds.13 mph78%30.15 "Hg6 mi
7:50 AM70 °FPassing clouds.9 mph88%30.15 "Hg6 mi
6:50 AM68 °FPassing clouds.7 mph88%30.12 "Hg5 mi
5:50 AM68 °FPassing clouds.7 mph94%30.12 "Hg6 mi
4:50 AM68 °FClear.9 mph94%30.09 "Hg6 mi
3:50 AM68 °FClear.8 mph94%30.09 "Hg6 mi
2:50 AM66 °FClear.7 mph94%30.09 "Hg6 mi
1:50 AM66 °FClear.6 mph94%30.12 "Hg6 mi
12:50 AM66 °FClear.6 mph88%30.12 "Hg6 mi
11:50 PM
Fri, Feb 12
66 °FClear.7 mph88%30.12 "Hg6 mi
10:50 PM68 °FClear.7 mph83%30.15 "Hg6 mi
9:50 PM68 °FPassing clouds.9 mph83%30.15 "Hg6 mi
8:50 PM68 °FPassing clouds.9 mph88%30.15 "Hg6 mi
7:50 PM68 °FPassing clouds.7 mph88%30.15 "Hg6 mi
6:50 PM70 °FPassing clouds.9 mph83%30.12 "Hg6 mi
5:51 PM72 °FPassing clouds.13 mph78%30.12 "Hg6 mi
4:50 PM73 °FScattered clouds.14 mph74%30.12 "Hg6 mi
3:50 PM73 °FScattered clouds.14 mph74%30.12 "Hg6 mi
2:52 PM73 °FBroken clouds.14 mph78%30.12 "Hg6 mi
1:53 PM72 °FBroken clouds.16 mph83%30.15 "Hg6 mi
Weather by CustomWeather, © 2016

See weather overviewHow to use our weather pages